SAS53T EKCH-EKVG

Flight info

Callsign SAS53T
Flight time 2h 18m
Altitude 36000
Route GOLGA DCT AMSEV DCT ZOL DCT GUNPA/M077F360 DCT ROBUR
Aircraft A320/M-SDE3FGHIJ1RWXYZ/ALB1

Departure

Time 2026-04-25 13:48
Airport Copenhagen Kastrup Airport (EKCH)

Arrival

Time 2026-04-25 16:06
Airport Vágar Airport (EKVG)
Time Latitude Longitude Altitude Speed Heading
2026-04-25 13:12 55.62672 12.64446 27 ft 0 kts 98°
2026-04-25 13:39 55.62674 12.64424 25 ft 2 kts 98°
2026-04-25 13:40 55.62676 12.64395 24 ft 2 kts 105°
2026-04-25 13:40 55.62683 12.64369 24 ft 2 kts 133°
2026-04-25 13:40 55.62695 12.64349 26 ft 2 kts 167°
2026-04-25 13:40 55.62711 12.64342 27 ft 2 kts 190°
2026-04-25 13:41 55.62714 12.64343 27 ft 0 kts 190°
2026-04-25 13:43 55.62713 12.64343 27 ft 0 kts 190°
2026-04-25 13:43 55.62704 12.64339 27 ft 2 kts 192°
2026-04-25 13:43 55.62681 12.64325 24 ft 5 kts 201°
2026-04-25 13:43 55.62643 12.64297 24 ft 7 kts 205°
2026-04-25 13:44 55.62593 12.64244 25 ft 10 kts 214°
2026-04-25 13:44 55.62526 12.64211 25 ft 11 kts 159°
2026-04-25 13:44 55.62476 12.64331 24 ft 13 kts 124°
2026-04-25 13:44 55.62413 12.64447 24 ft 13 kts 157°
2026-04-25 13:45 55.62357 12.64433 23 ft 0 kts 194°
2026-04-25 13:45 55.62344 12.64427 23 ft 4 kts 194°
2026-04-25 13:45 55.62297 12.64404 23 ft 11 kts 196°
2026-04-25 13:46 55.62204 12.64349 23 ft 16 kts 205°
2026-04-25 13:46 55.62102 12.64263 25 ft 17 kts 205°
2026-04-25 13:46 55.61991 12.64169 24 ft 19 kts 206°
2026-04-25 13:46 55.61867 12.64073 24 ft 20 kts 189°
2026-04-25 13:47 55.61753 12.64083 27 ft 15 kts 176°
2026-04-25 13:47 55.61652 12.64085 27 ft 14 kts 189°
2026-04-25 13:47 55.61569 12.63982 28 ft 16 kts 220°
2026-04-25 13:47 55.61427 12.63759 25 ft 54 kts 222°
2026-04-25 13:48 55.60993 12.63093 29 ft 109 kts 220°
2026-04-25 13:48 55.60307 12.62035 31 ft 150 kts 228°
2026-04-25 13:48 55.59580 12.60942 698 ft 130 kts 231°
2026-04-25 13:48 55.58870 12.59875 1041 ft 142 kts 233°
2026-04-25 13:49 55.58083 12.58608 1270 ft 165 kts 232°
2026-04-25 13:49 55.57174 12.57163 1482 ft 187 kts 230°
2026-04-25 13:49 55.56282 12.55352 1719 ft 203 kts 253°
2026-04-25 13:49 55.56182 12.52829 2107 ft 216 kts 279°
2026-04-25 13:50 55.56401 12.50156 2927 ft 222 kts 281°
2026-04-25 13:50 55.56639 12.47451 3873 ft 223 kts 281°
2026-04-25 13:50 55.56875 12.44725 4802 ft 226 kts 281°
2026-04-25 13:50 55.57106 12.41968 5690 ft 229 kts 282°
2026-04-25 13:51 55.57333 12.39171 6548 ft 231 kts 282°
2026-04-25 13:51 55.57554 12.36381 7382 ft 233 kts 282°
2026-04-25 13:51 55.58067 12.33670 8231 ft 231 kts 302°
2026-04-25 13:51 55.59183 12.31617 9065 ft 237 kts 322°
2026-04-25 13:52 55.60744 12.30594 9851 ft 253 kts 343°
2026-04-25 13:52 55.62538 12.30240 10313 ft 269 kts 345°
2026-04-25 13:52 55.64477 12.29861 10514 ft 291 kts 345°
2026-04-25 13:52 55.66520 12.29475 11040 ft 299 kts 345°
2026-04-25 13:53 55.68601 12.29103 11738 ft 302 kts 345°
2026-04-25 13:53 55.70700 12.28729 12456 ft 304 kts 345°
2026-04-25 13:53 55.72815 12.28343 13176 ft 307 kts 345°
2026-04-25 13:53 55.74946 12.27950 13863 ft 309 kts 344°
2026-04-25 13:54 55.77055 12.27385 14493 ft 304 kts 336°
2026-04-25 13:54 55.79004 12.26099 15113 ft 296 kts 326°
2026-04-25 13:54 55.80773 12.24263 15721 ft 295 kts 322°
2026-04-25 13:54 55.82534 12.22376 16355 ft 296 kts 322°
2026-04-25 13:55 55.84308 12.20486 16997 ft 298 kts 322°
2026-04-25 13:55 55.86088 12.18590 17631 ft 299 kts 322°
2026-04-25 13:55 55.87877 12.16681 18252 ft 301 kts 322°
2026-04-25 13:55 55.89680 12.14753 18819 ft 303 kts 322°
2026-04-25 13:56 55.91486 12.12817 19398 ft 304 kts 322°
2026-04-25 13:56 55.93305 12.10862 19977 ft 306 kts 322°
2026-04-25 13:56 55.95130 12.08897 20547 ft 307 kts 322°
2026-04-25 13:56 55.96967 12.06921 21097 ft 309 kts 322°
2026-04-25 13:57 55.98815 12.04930 21743 ft 311 kts 321°
2026-04-25 13:57 56.00044 12.03606 22140 ft 311 kts 321°
2026-04-25 13:57 56.02525 12.00934 22896 ft 313 kts 321°
2026-04-25 13:57 56.04396 11.98925 23412 ft 314 kts 322°
2026-04-25 13:58 56.06295 11.96965 23864 ft 316 kts 323°
2026-04-25 13:58 56.08210 11.95015 24290 ft 318 kts 324°
2026-04-25 13:58 56.10202 11.93212 24707 ft 322 kts 326°
2026-04-25 13:58 56.12213 11.91444 25097 ft 319 kts 319°
2026-04-25 13:59 56.13439 11.90039 25436 ft 317 kts 322°
2026-04-25 13:59 56.15344 11.87970 25703 ft 323 kts 321°
2026-04-25 13:59 56.17285 11.85877 26011 ft 328 kts 323°
2026-04-25 13:59 56.19265 11.83822 26351 ft 331 kts 323°
2026-04-25 14:00 56.19916 11.83158 26470 ft 331 kts 323°
2026-04-25 14:00 56.23303 11.79765 27086 ft 334 kts 324°
2026-04-25 14:00 56.24995 11.78053 27366 ft 336 kts 324°
2026-04-25 14:00 56.27038 11.75967 27709 ft 338 kts 324°
2026-04-25 14:01 56.29087 11.73856 28139 ft 341 kts 324°
2026-04-25 14:01 56.31154 11.71724 28520 ft 344 kts 324°
2026-04-25 14:01 56.33148 11.69364 28907 ft 342 kts 317°
2026-04-25 14:01 56.34852 11.66387 29305 ft 342 kts 309°
2026-04-25 14:02 56.36424 11.63146 29680 ft 345 kts 310°
2026-04-25 14:02 56.37997 11.59939 30065 ft 347 kts 310°
2026-04-25 14:02 56.39599 11.56687 30482 ft 347 kts 310°
2026-04-25 14:02 56.40141 11.55586 30603 ft 347 kts 311°
2026-04-25 14:03 56.42791 11.50183 31346 ft 345 kts 311°
2026-04-25 14:03 56.44384 11.46927 31743 ft 346 kts 311°
2026-04-25 14:03 56.45980 11.43658 32127 ft 347 kts 311°
2026-04-25 14:03 56.47579 11.40373 32511 ft 348 kts 311°
2026-04-25 14:04 56.49181 11.37081 32895 ft 349 kts 311°
2026-04-25 14:04 56.50790 11.33766 33280 ft 350 kts 312°
2026-04-25 14:04 56.52400 11.30447 33654 ft 351 kts 312°
2026-04-25 14:04 56.54016 11.27120 33966 ft 352 kts 312°
2026-04-25 14:05 56.55637 11.23777 34210 ft 354 kts 312°
2026-04-25 14:05 56.57262 11.20421 34447 ft 355 kts 312°
2026-04-25 14:05 56.58889 11.17048 34684 ft 356 kts 311°
2026-04-25 14:05 56.60522 11.13657 34907 ft 357 kts 311°
2026-04-25 14:06 56.62159 11.10251 35155 ft 360 kts 312°
2026-04-25 14:06 56.63809 11.06811 35275 ft 363 kts 312°
2026-04-25 14:06 56.65475 11.03331 35420 ft 366 kts 312°
2026-04-25 14:06 56.67146 10.99831 35615 ft 367 kts 312°
2026-04-25 14:07 56.68823 10.96319 35769 ft 369 kts 312°
2026-04-25 14:07 56.72222 10.89204 35813 ft 375 kts 312°
2026-04-25 14:08 56.75646 10.82020 35813 ft 376 kts 312°
2026-04-25 14:08 56.79065 10.74814 35821 ft 376 kts 311°
2026-04-25 14:09 56.82479 10.67587 35813 ft 376 kts 311°
2026-04-25 14:09 56.85866 10.60394 35816 ft 376 kts 311°
2026-04-25 14:10 56.89267 10.53152 35822 ft 375 kts 312°
2026-04-25 14:10 56.92652 10.45929 35844 ft 373 kts 312°
2026-04-25 14:11 56.96028 10.38702 35855 ft 374 kts 312°
2026-04-25 14:11 56.99400 10.31461 35834 ft 374 kts 312°
2026-04-25 14:12 57.02775 10.24186 35842 ft 375 kts 312°
2026-04-25 14:12 57.06152 10.16892 35852 ft 375 kts 312°
2026-04-25 14:13 57.09536 10.09568 35859 ft 376 kts 312°
2026-04-25 14:13 57.12890 10.02275 35844 ft 371 kts 313°
2026-04-25 14:14 57.16206 9.95034 35866 ft 370 kts 312°
2026-04-25 14:14 57.19513 9.87789 35873 ft 369 kts 312°
2026-04-25 14:15 57.22261 9.81764 35873 ft 369 kts 313°
2026-04-25 14:15 57.25561 9.74512 35874 ft 369 kts 312°
2026-04-25 14:16 57.28858 9.67239 35902 ft 370 kts 313°
2026-04-25 14:16 57.32153 9.59944 35857 ft 369 kts 313°
2026-04-25 14:17 57.35440 9.52649 35839 ft 368 kts 313°
2026-04-25 14:17 57.38715 9.45362 35857 ft 368 kts 313°
2026-04-25 14:18 57.41981 9.38075 35869 ft 367 kts 313°
2026-04-25 14:18 57.45242 9.30778 35884 ft 367 kts 313°
2026-04-25 14:19 57.48491 9.23469 35876 ft 367 kts 313°
2026-04-25 14:19 57.51734 9.16147 35877 ft 367 kts 313°
2026-04-25 14:20 57.54956 9.08864 35886 ft 367 kts 313°
2026-04-25 14:20 57.58187 9.01542 35852 ft 365 kts 313°
2026-04-25 14:21 57.61394 8.94236 35952 ft 363 kts 313°
2026-04-25 14:21 57.64571 8.86968 35883 ft 360 kts 313°
2026-04-25 14:22 57.67732 8.79701 35874 ft 361 kts 313°
2026-04-25 14:22 57.70803 8.72257 35881 ft 362 kts 311°
2026-04-25 14:23 57.73817 8.64699 35883 ft 362 kts 311°
2026-04-25 14:23 57.76830 8.57136 35878 ft 362 kts 311°
2026-04-25 14:24 57.79850 8.49584 35864 ft 359 kts 311°
2026-04-25 14:24 57.82832 8.42134 35888 ft 356 kts 311°
2026-04-25 14:25 57.85792 8.34701 35895 ft 355 kts 311°
2026-04-25 14:25 57.88739 8.27267 35908 ft 355 kts 311°
2026-04-25 14:26 57.91684 8.19832 35910 ft 354 kts 311°
2026-04-25 14:26 57.94624 8.12388 35965 ft 355 kts 311°
2026-04-25 14:27 57.97549 8.04954 35913 ft 352 kts 311°
2026-04-25 14:27 58.00443 7.97574 35905 ft 353 kts 311°
2026-04-25 14:28 58.03359 7.90115 35892 ft 355 kts 311°
2026-04-25 14:28 58.06282 7.82615 35911 ft 355 kts 311°
2026-04-25 14:29 58.09199 7.75102 35915 ft 354 kts 311°
2026-04-25 14:29 58.12111 7.67585 35921 ft 354 kts 311°
2026-04-25 14:30 58.15017 7.60046 35935 ft 354 kts 311°
2026-04-25 14:30 58.19360 7.48727 35955 ft 354 kts 311°
2026-04-25 14:31 58.22254 7.41180 35893 ft 354 kts 311°
2026-04-25 14:31 58.25154 7.33596 35946 ft 356 kts 311°
2026-04-25 14:32 58.28051 7.25977 35985 ft 356 kts 311°
2026-04-25 14:32 58.30946 7.18335 35994 ft 356 kts 311°
2026-04-25 14:33 58.33839 7.10685 35990 ft 356 kts 311°
2026-04-25 14:33 58.36727 7.03017 35986 ft 356 kts 311°
2026-04-25 14:34 58.39609 6.95345 36002 ft 356 kts 311°
2026-04-25 14:34 58.42485 6.87654 36002 ft 356 kts 311°
2026-04-25 14:35 58.45373 6.79931 35972 ft 360 kts 311°
2026-04-25 14:35 58.48277 6.72128 36005 ft 361 kts 311°
2026-04-25 14:36 58.51154 6.64353 36011 ft 360 kts 311°
2026-04-25 14:36 58.54046 6.56523 36015 ft 360 kts 311°
2026-04-25 14:37 58.56931 6.48688 36029 ft 360 kts 311°
2026-04-25 14:37 58.59812 6.40838 36029 ft 360 kts 311°
2026-04-25 14:38 58.62688 6.32966 36035 ft 360 kts 311°
2026-04-25 14:38 58.65566 6.25072 35983 ft 361 kts 311°
2026-04-25 14:39 58.68463 6.17107 36030 ft 365 kts 311°
2026-04-25 14:39 58.71367 6.09092 36050 ft 365 kts 311°
2026-04-25 14:40 58.74266 6.01072 36062 ft 365 kts 311°
2026-04-25 14:40 58.77157 5.93029 36082 ft 365 kts 310°
2026-04-25 14:41 58.80046 5.84976 36090 ft 365 kts 310°
2026-04-25 14:41 58.82940 5.76871 36089 ft 365 kts 310°
2026-04-25 14:42 58.85323 5.70160 36083 ft 365 kts 310°
2026-04-25 14:42 58.88713 5.60781 36066 ft 363 kts 313°
2026-04-25 14:43 58.91892 5.53255 36114 ft 360 kts 316°
2026-04-25 14:43 58.95123 5.45904 36085 ft 358 kts 315°
2026-04-25 14:44 58.98304 5.38469 36086 ft 359 kts 315°
2026-04-25 14:44 59.01457 5.30955 36106 ft 359 kts 314°
2026-04-25 14:45 59.04603 5.23406 36105 ft 360 kts 314°
2026-04-25 14:45 59.07722 5.15879 36104 ft 360 kts 314°
2026-04-25 14:46 59.10862 5.08289 36067 ft 361 kts 314°
2026-04-25 14:46 59.14021 5.00659 36090 ft 362 kts 314°
2026-04-25 14:47 59.16671 4.94245 36101 ft 363 kts 314°
2026-04-25 14:47 59.20340 4.85320 36118 ft 363 kts 314°
2026-04-25 14:48 59.23487 4.77616 36161 ft 363 kts 314°
2026-04-25 14:48 59.26613 4.69941 36124 ft 360 kts 314°
2026-04-25 14:49 59.29735 4.62263 36151 ft 361 kts 314°
2026-04-25 14:49 59.32855 4.54569 36156 ft 361 kts 314°
2026-04-25 14:50 59.35981 4.46854 36117 ft 364 kts 314°
2026-04-25 14:50 59.39123 4.39051 36145 ft 365 kts 314°
2026-04-25 14:51 59.42260 4.31210 36149 ft 365 kts 314°
2026-04-25 14:51 59.45400 4.23351 36158 ft 366 kts 314°
2026-04-25 14:52 59.48519 4.15537 36164 ft 366 kts 314°
2026-04-25 14:52 59.51151 4.08920 36179 ft 366 kts 313°
2026-04-25 14:53 59.54793 3.99725 36208 ft 366 kts 314°
2026-04-25 14:53 59.57913 3.91827 36190 ft 365 kts 314°
2026-04-25 14:54 59.61025 3.83910 36141 ft 366 kts 313°
2026-04-25 14:54 59.64142 3.75947 36158 ft 367 kts 313°
2026-04-25 14:55 59.67265 3.67948 36168 ft 368 kts 313°
2026-04-25 14:55 59.70389 3.59929 36186 ft 368 kts 313°
2026-04-25 14:56 59.73509 3.51891 36191 ft 368 kts 313°
2026-04-25 14:56 59.76626 3.43838 36195 ft 368 kts 313°
2026-04-25 14:57 59.79737 3.35764 36208 ft 368 kts 313°
2026-04-25 14:57 59.82843 3.27668 36143 ft 369 kts 312°
2026-04-25 14:58 59.85974 3.19491 36221 ft 373 kts 312°
2026-04-25 14:58 59.89108 3.11261 36230 ft 373 kts 312°
2026-04-25 14:59 59.92262 3.02970 36211 ft 381 kts 312°
2026-04-25 14:59 59.95506 2.94429 36210 ft 389 kts 311°
2026-04-25 15:00 59.98760 2.85767 36220 ft 390 kts 311°
2026-04-25 15:00 60.02011 2.77091 36220 ft 390 kts 311°
2026-04-25 15:01 60.05260 2.68409 36215 ft 390 kts 311°
2026-04-25 15:01 60.08521 2.59685 36194 ft 393 kts 311°
2026-04-25 15:02 60.11795 2.50877 36201 ft 395 kts 310°
2026-04-25 15:02 60.15076 2.42022 36222 ft 396 kts 310°
2026-04-25 15:03 60.18331 2.33206 36249 ft 396 kts 310°
2026-04-25 15:03 60.21602 2.24306 36250 ft 396 kts 310°
2026-04-25 15:04 60.24864 2.15389 36264 ft 396 kts 310°
2026-04-25 15:04 60.28118 2.06453 36268 ft 395 kts 310°
2026-04-25 15:05 60.30843 1.98960 36220 ft 396 kts 310°
2026-04-25 15:06 60.35733 1.85477 36228 ft 398 kts 310°
2026-04-25 15:06 60.38975 1.76480 36242 ft 399 kts 309°
2026-04-25 15:07 60.42234 1.67378 36248 ft 400 kts 309°
2026-04-25 15:07 60.45488 1.58257 36290 ft 400 kts 309°
2026-04-25 15:08 60.48741 1.49109 36292 ft 400 kts 309°
2026-04-25 15:08 60.51980 1.39956 36292 ft 399 kts 309°
2026-04-25 15:09 60.55212 1.30783 36238 ft 400 kts 309°
2026-04-25 15:09 60.60079 1.16943 36246 ft 402 kts 309°
2026-04-25 15:10 60.63331 1.07671 36261 ft 403 kts 309°
2026-04-25 15:11 60.68195 0.93671 36282 ft 404 kts 308°
2026-04-25 15:11 60.71433 0.84293 36286 ft 404 kts 308°
2026-04-25 15:12 60.76284 0.70197 36320 ft 404 kts 308°
2026-04-25 15:12 60.78960 0.62358 36275 ft 405 kts 308°
2026-04-25 15:13 60.84357 0.46551 36288 ft 406 kts 308°
2026-04-25 15:14 60.87591 0.37025 36294 ft 407 kts 307°
2026-04-25 15:14 60.90819 0.27463 36307 ft 407 kts 307°
2026-04-25 15:15 60.94038 0.17873 36311 ft 408 kts 307°
2026-04-25 15:15 60.97255 0.08254 36314 ft 408 kts 307°
2026-04-25 15:16 61.00227 -0.01709 36297 ft 412 kts 296°
2026-04-25 15:16 61.03027 -0.18618 36290 ft 417 kts 292°
2026-04-25 15:17 61.05770 -0.35669 36333 ft 417 kts 292°
2026-04-25 15:18 61.07576 -0.46973 36330 ft 417 kts 292°
2026-04-25 15:18 61.10287 -0.64060 36338 ft 417 kts 291°
2026-04-25 15:19 61.11786 -0.73618 36337 ft 417 kts 291°
2026-04-25 15:19 61.13855 -0.86892 36336 ft 417 kts 291°
2026-04-25 15:20 61.15625 -0.98333 36332 ft 417 kts 291°
2026-04-25 15:20 61.17389 -1.09776 36333 ft 417 kts 291°
2026-04-25 15:21 61.19145 -1.21244 36342 ft 417 kts 291°
2026-04-25 15:21 61.20891 -1.32719 36337 ft 417 kts 291°
2026-04-25 15:22 61.22627 -1.44205 36310 ft 418 kts 290°
2026-04-25 15:22 61.24362 -1.55725 36315 ft 419 kts 290°
2026-04-25 15:23 61.26081 -1.67296 36327 ft 419 kts 290°
2026-04-25 15:23 61.27793 -1.78888 36334 ft 420 kts 290°
2026-04-25 15:24 61.29484 -1.90432 36337 ft 420 kts 290°
2026-04-25 15:24 61.30905 -2.00181 36346 ft 420 kts 290°
2026-04-25 15:25 61.32868 -2.13720 36343 ft 420 kts 289°
2026-04-25 15:25 61.34552 -2.25389 36351 ft 421 kts 289°
2026-04-25 15:26 61.36223 -2.37079 36355 ft 421 kts 289°
2026-04-25 15:26 61.37885 -2.48794 36355 ft 421 kts 289°
2026-04-25 15:27 61.39535 -2.60530 36359 ft 422 kts 289°
2026-04-25 15:28 61.41990 -2.78161 36360 ft 422 kts 289°
2026-04-25 15:28 61.43619 -2.89941 36332 ft 423 kts 288°
2026-04-25 15:29 61.45246 -3.01767 36334 ft 424 kts 288°
2026-04-25 15:29 61.46865 -3.13629 36348 ft 424 kts 288°
2026-04-25 15:30 61.48470 -3.25516 36356 ft 425 kts 288°
2026-04-25 15:30 61.50068 -3.37435 36362 ft 425 kts 288°
2026-04-25 15:31 61.51649 -3.49276 36369 ft 425 kts 287°
2026-04-25 15:31 61.53233 -3.61229 36338 ft 426 kts 287°
2026-04-25 15:32 61.54805 -3.73242 36343 ft 428 kts 287°
2026-04-25 15:32 61.56375 -3.85286 36348 ft 429 kts 286°
2026-04-25 15:33 61.58714 -4.03428 36359 ft 430 kts 286°
2026-04-25 15:33 61.60260 -4.15550 36367 ft 430 kts 286°
2026-04-25 15:34 61.61797 -4.27692 36356 ft 431 kts 285°
2026-04-25 15:34 61.63072 -4.37822 36355 ft 432 kts 285°
2026-04-25 15:35 61.65610 -4.58270 36359 ft 434 kts 285°
2026-04-25 15:36 61.67890 -4.76708 36372 ft 434 kts 285°
2026-04-25 15:36 61.69387 -4.89022 36375 ft 434 kts 285°
2026-04-25 15:37 61.70872 -5.01362 36359 ft 435 kts 284°
2026-04-25 15:37 61.72342 -5.13750 36356 ft 435 kts 284°
2026-04-25 15:38 61.73781 -5.25899 35944 ft 423 kts 284°
2026-04-25 15:38 61.74490 -5.31895 35495 ft 419 kts 284°
2026-04-25 15:38 61.75186 -5.37841 35042 ft 416 kts 283°
2026-04-25 15:39 61.75876 -5.43740 34581 ft 413 kts 283°
2026-04-25 15:39 61.76563 -5.49611 34106 ft 410 kts 283°
2026-04-25 15:39 61.77242 -5.55433 33638 ft 406 kts 283°
2026-04-25 15:39 61.77908 -5.61194 33192 ft 402 kts 283°
2026-04-25 15:40 61.78562 -5.66898 32732 ft 398 kts 283°
2026-04-25 15:40 61.78773 -5.68745 32593 ft 397 kts 283°
2026-04-25 15:40 61.79847 -5.78172 31860 ft 391 kts 283°
2026-04-25 15:40 61.80481 -5.83744 31422 ft 388 kts 283°
2026-04-25 15:41 61.81108 -5.89273 30991 ft 385 kts 283°
2026-04-25 15:41 61.81728 -5.94774 30569 ft 383 kts 283°
2026-04-25 15:41 61.82339 -6.00237 30104 ft 380 kts 283°
2026-04-25 15:41 61.82946 -6.05648 29704 ft 376 kts 283°
2026-04-25 15:42 61.83542 -6.11010 29300 ft 373 kts 283°
2026-04-25 15:42 61.84120 -6.16253 28920 ft 369 kts 283°
2026-04-25 15:42 61.84708 -6.21598 28535 ft 366 kts 283°
2026-04-25 15:42 61.85284 -6.26834 28149 ft 364 kts 283°
2026-04-25 15:43 61.86026 -6.31900 27348 ft 371 kts 296°
2026-04-25 15:43 61.87523 -6.36414 26321 ft 378 kts 315°
2026-04-25 15:43 61.89673 -6.39562 25552 ft 375 kts 333°
2026-04-25 15:43 61.92014 -6.41780 25146 ft 364 kts 333°
2026-04-25 15:44 61.94313 -6.44016 24730 ft 363 kts 333°
2026-04-25 15:44 61.96602 -6.46285 24309 ft 362 kts 333°
2026-04-25 15:44 61.98881 -6.48561 23853 ft 361 kts 333°
2026-04-25 15:44 62.01150 -6.50824 23397 ft 359 kts 333°
2026-04-25 15:45 62.03406 -6.53066 22966 ft 356 kts 333°
2026-04-25 15:45 62.05641 -6.55289 22537 ft 353 kts 333°
2026-04-25 15:45 62.07860 -6.57494 22127 ft 350 kts 333°
2026-04-25 15:45 62.08605 -6.58235 21968 ft 349 kts 333°
2026-04-25 15:46 62.12240 -6.61859 21255 ft 344 kts 333°
2026-04-25 15:46 62.14404 -6.64017 20830 ft 342 kts 333°
2026-04-25 15:46 62.16547 -6.66159 20415 ft 339 kts 333°
2026-04-25 15:46 62.18676 -6.68288 19991 ft 337 kts 333°
2026-04-25 15:47 62.20792 -6.70401 19568 ft 335 kts 333°
2026-04-25 15:47 62.22902 -6.72503 19160 ft 333 kts 333°
2026-04-25 15:47 62.24998 -6.74598 18747 ft 331 kts 333°
2026-04-25 15:47 62.27070 -6.76682 18302 ft 329 kts 333°
2026-04-25 15:48 62.29134 -6.78765 17890 ft 326 kts 333°
2026-04-25 15:48 62.31177 -6.80835 17480 ft 323 kts 333°
2026-04-25 15:48 62.33200 -6.82887 17074 ft 320 kts 333°
2026-04-25 15:48 62.35205 -6.84924 16681 ft 317 kts 333°
2026-04-25 15:49 62.37196 -6.86944 16292 ft 315 kts 333°
2026-04-25 15:49 62.39170 -6.88948 15901 ft 313 kts 333°
2026-04-25 15:49 62.41130 -6.90942 15513 ft 310 kts 333°
2026-04-25 15:49 62.43077 -6.92918 15131 ft 308 kts 332°
2026-04-25 15:50 62.44811 -6.95459 14959 ft 296 kts 313°
2026-04-25 15:50 62.45934 -6.99043 14833 ft 283 kts 292°
2026-04-25 15:50 62.46348 -7.03029 14702 ft 265 kts 273°
2026-04-25 15:50 62.46120 -7.06907 14347 ft 260 kts 254°
2026-04-25 15:51 62.45300 -7.10338 13968 ft 257 kts 235°
2026-04-25 15:51 62.44924 -7.11296 13819 ft 258 kts 230°
2026-04-25 15:51 62.42826 -7.15895 12951 ft 255 kts 229°
2026-04-25 15:51 62.42004 -7.17696 12630 ft 253 kts 229°
2026-04-25 15:52 62.40377 -7.21272 12018 ft 252 kts 230°
2026-04-25 15:52 62.39155 -7.23967 11755 ft 251 kts 229°
2026-04-25 15:52 62.37944 -7.26621 11577 ft 243 kts 229°
2026-04-25 15:52 62.36792 -7.29138 11339 ft 232 kts 230°
2026-04-25 15:53 62.35673 -7.31584 11029 ft 225 kts 229°
2026-04-25 15:53 62.34588 -7.33957 10757 ft 220 kts 229°
2026-04-25 15:53 62.33881 -7.35502 10557 ft 218 kts 229°
2026-04-25 15:53 62.32460 -7.38619 10070 ft 218 kts 229°
2026-04-25 15:54 62.31758 -7.40153 9837 ft 217 kts 229°
2026-04-25 15:54 62.30703 -7.42457 9479 ft 216 kts 228°
2026-04-25 15:54 62.29653 -7.44745 9122 ft 214 kts 228°
2026-04-25 15:54 62.28611 -7.47016 8773 ft 213 kts 228°
2026-04-25 15:55 62.27571 -7.49281 8425 ft 212 kts 228°
2026-04-25 15:55 62.26538 -7.51526 8088 ft 211 kts 227°
2026-04-25 15:55 62.25506 -7.53765 7672 ft 213 kts 227°
2026-04-25 15:55 62.24480 -7.56111 7274 ft 213 kts 236°
2026-04-25 15:56 62.23997 -7.58988 7030 ft 204 kts 264°
2026-04-25 15:56 62.23906 -7.62008 6696 ft 203 kts 269°
2026-04-25 15:56 62.23874 -7.65030 6322 ft 203 kts 269°
2026-04-25 15:56 62.23848 -7.68035 5977 ft 201 kts 269°
2026-04-25 15:57 62.23824 -7.71024 5616 ft 200 kts 269°
2026-04-25 15:57 62.23808 -7.74021 5231 ft 201 kts 269°
2026-04-25 15:57 62.23799 -7.77024 4844 ft 202 kts 269°
2026-04-25 15:57 62.23797 -7.80037 4454 ft 202 kts 269°
2026-04-25 15:58 62.23789 -7.83064 4071 ft 203 kts 263°
2026-04-25 15:58 62.23338 -7.85833 4009 ft 192 kts 233°
2026-04-25 15:58 62.22372 -7.87697 4009 ft 187 kts 205°
2026-04-25 15:58 62.21159 -7.88322 4003 ft 172 kts 176°
2026-04-25 15:59 62.20048 -7.87749 4011 ft 162 kts 152°
2026-04-25 15:59 62.19056 -7.86616 4010 ft 163 kts 150°
2026-04-25 15:59 62.17986 -7.85390 4019 ft 182 kts 151°
2026-04-25 15:59 62.16844 -7.84084 4016 ft 190 kts 151°
2026-04-25 16:00 62.15670 -7.82749 4006 ft 192 kts 151°
2026-04-25 16:00 62.14887 -7.81862 4010 ft 192 kts 150°
2026-04-25 16:00 62.13534 -7.79444 4007 ft 191 kts 127°
2026-04-25 16:00 62.12914 -7.76951 3854 ft 189 kts 108°
2026-04-25 16:01 62.12591 -7.74308 3695 ft 177 kts 104°
2026-04-25 16:01 62.12295 -7.71880 3555 ft 161 kts 105°
2026-04-25 16:01 62.12025 -7.69679 3419 ft 146 kts 105°
2026-04-25 16:01 62.11771 -7.67627 3342 ft 147 kts 105°
2026-04-25 16:02 62.11500 -7.65453 3213 ft 155 kts 105°
2026-04-25 16:02 62.11223 -7.63216 3084 ft 156 kts 105°
2026-04-25 16:02 62.10948 -7.60972 2955 ft 156 kts 105°
2026-04-25 16:02 62.10671 -7.58725 2836 ft 156 kts 105°
2026-04-25 16:03 62.10410 -7.56477 2721 ft 156 kts 101°
2026-04-25 16:03 62.10293 -7.54168 2585 ft 156 kts 92°
2026-04-25 16:03 62.10351 -7.51855 2467 ft 156 kts 85°
2026-04-25 16:03 62.10465 -7.49545 2339 ft 156 kts 87°
2026-04-25 16:04 62.10350 -7.47269 2206 ft 154 kts 106°
2026-04-25 16:04 62.09948 -7.45147 2080 ft 154 kts 113°
2026-04-25 16:04 62.09530 -7.43047 1932 ft 152 kts 113°
2026-04-25 16:04 62.09136 -7.41074 1677 ft 139 kts 113°
2026-04-25 16:05 62.08774 -7.39218 1451 ft 133 kts 112°
2026-04-25 16:05 62.08439 -7.37396 1283 ft 131 kts 111°
2026-04-25 16:05 62.07771 -7.33819 931 ft 130 kts 113°
2026-04-25 16:06 62.07410 -7.32043 655 ft 130 kts 115°
2026-04-25 16:06 62.07002 -7.30320 433 ft 130 kts 118°
2026-04-25 16:06 62.06580 -7.28614 290 ft 123 kts 115°
2026-04-25 16:06 62.06301 -7.27487 290 ft 39 kts 118°
2026-04-25 16:07 62.06179 -7.26989 274 ft 20 kts 118°
2026-04-25 16:07 62.06151 -7.26935 274 ft 8 kts 138°
2026-04-25 16:07 62.06161 -7.26923 274 ft 5 kts 302°
2026-04-25 16:07 62.06188 -7.27034 277 ft 12 kts 298°
2026-04-25 16:08 62.06242 -7.27243 286 ft 22 kts 298°
2026-04-25 16:08 62.06329 -7.27597 292 ft 30 kts 297°
2026-04-25 16:08 62.06425 -7.27988 295 ft 27 kts 298°
2026-04-25 16:08 62.06521 -7.28127 290 ft 19 kts 23°
2026-04-25 16:09 62.06615 -7.28070 289 ft 12 kts 16°
2026-04-25 16:09 62.06669 -7.27967 291 ft 9 kts 23°
2026-04-25 16:09 62.06687 -7.27951 289 ft 0 kts 27°